Location: Arrien
(42.8963°N, 1.0429°E)
Time: 14:16:38
(UTC+00:00)

SJ-12 - Pass Details

Date: 11 December 2025
Orbit: 517 x 525 km, 97.8° (Epoch: 19 January)

Event Time Altitude Azimuth Distance (km) Brightness Sun altitude
Rises 16:57:58 0° 143° (SE) 2,627 7.2 -6.7°
Reaches altitude 10° 17:00:12 10° 133° (SE) 1,745 6.2 -7.1°
Maximum altitude 17:03:32 31° 70° (ENE) 931 4.4 -7.6°
Drops below altitude 10° 17:06:54 10° 8° (N) 1,760 6.1 -8.2°
Sets 17:09:09 0° 358° (N) 2,654 7.1 -8.6°
